Weather History for Alexandria, LA

Change the Weather History Date:

Friday, May 17, 2013

  Actual Average Record
Temperature  
Mean Temperature 77 °F 75 °F  
Max Temperature 88 °F 86 °F 93 °F (1925)
Min Temperature 66 °F 64 °F 47 °F (2011)
Cooling Degree Days 12 10  
Month to date cooling degree days 58 135  
Year to date cooling degree days 185 294  
Growing Degree Days 26 (Base 50)    
Moisture  
Dew Point 69 °F    
Average Humidity 78    
Maximum Humidity 100    
Minimum Humidity 55    
Precipitation  
Precipitation 0.00 in 0.16 in 2.30 in (1953)
Month to date precipitation 0.97 2.38  
Year to date precipitation 22.01 21.66  
Sea Level Pressure  
Sea Level Pressure 29.93 in    
Wind  
Wind Speed 8 mph (South)    
Max Wind Speed 17 mph    
Max Gust Speed 22 mph    
Visibility 9 miles    
Events      
T = Trace of Precipitation, MM = Missing Value Source: NWS Daily Summary

Daily Weather History Graph

Daily Weather History Graph

Search for Another Location

Airport:

Trip Planner

Search our weather history database for the weather conditions in past years. The results will help you decide how hot, cold, wet, or windy it might be!

Date:

Astronomy

May. 17, 2013 Rise Set
Actual Time 6:12 AM CDT 8:00 PM CDT
Civil Twilight 5:46 AM CDT 8:27 PM CDT
Nautical Twilight 5:13 AM CDT 8:59 PM CDT
Astronomical Twilight 4:39 AM CDT 9:34 PM CDT
Moon 12:34 PM CDT (5/17) 1:03 AM CDT (5/17)
Length of Visible Light 14h 41m
Length of Day
13h 48m
Waxing Crescent, 45% of the Moon is Illuminated
May 17
Waxing Crescent
May 17
First Quarter
May 24
Full
May 31
Last Quarter
Jun 8
New

Hourly Weather History & Observations

Time (CDT) Temp. Heat Index Dew Point Humidity Pressure Visibility Wind Dir Wind Speed Gust Speed Precip Events Conditions
12:53 AM 66.9 °F - 64.9 °F 93% 29.92 in 10.0 mi SSE 5.8 mph - N/A   Clear
1:53 AM 68.0 °F - 66.0 °F 93% 29.91 in 10.0 mi SSE 8.1 mph - N/A   Partly Cloudy
2:53 AM 68.0 °F - 66.0 °F 93% 29.91 in 10.0 mi South 5.8 mph - N/A   Overcast
3:53 AM 68.0 °F - 66.9 °F 96% 29.90 in 8.0 mi SSE 5.8 mph - N/A   Overcast
4:29 AM 69.8 °F - 68.0 °F 94% 29.89 in 7.0 mi SSE 5.8 mph - N/A   Overcast
4:53 AM 69.1 °F - 68.0 °F 96% 29.90 in 7.0 mi SSE 4.6 mph - N/A   Overcast
5:10 AM 69.8 °F - 68.0 °F 94% 29.89 in 7.0 mi South 4.6 mph - N/A   Overcast
5:53 AM 70.0 °F - 69.1 °F 97% 29.91 in 8.0 mi South 4.6 mph - N/A   Overcast
7:05 AM 71.6 °F - 69.8 °F 94% 29.92 in 7.0 mi SSE 4.6 mph - N/A   Overcast
7:53 AM 73.0 °F - 70.0 °F 90% 29.95 in 7.0 mi SE 3.5 mph - N/A   Overcast
8:19 AM 73.4 °F - 69.8 °F 88% 29.96 in 8.0 mi South 4.6 mph - N/A   Overcast
8:53 AM 75.0 °F - 70.0 °F 84% 29.99 in 8.0 mi Calm Calm - N/A   Overcast
9:04 AM 75.2 °F - 71.6 °F 89% 29.97 in 8.0 mi South 4.6 mph - N/A   Overcast
9:53 AM 78.1 °F - 70.0 °F 76% 29.97 in 9.0 mi South 9.2 mph - N/A   Overcast
10:53 AM 80.1 °F 83.2 °F 70.0 °F 71% 29.97 in 8.0 mi SSW 8.1 mph - N/A   Mostly Cloudy
11:12 AM 82.4 °F 86.3 °F 69.8 °F 66% 29.96 in 8.0 mi SSW 15.0 mph - N/A   Mostly Cloudy
11:53 AM 82.9 °F 87.0 °F 70.0 °F 65% 29.96 in 8.0 mi South 11.5 mph 19.6 mph N/A   Mostly Cloudy
12:53 PM 82.9 °F 87.0 °F 70.0 °F 65% 29.95 in 8.0 mi South 10.4 mph - N/A   Mostly Cloudy
1:53 PM 84.9 °F 90.1 °F 71.1 °F 63% 29.94 in 9.0 mi South 10.4 mph - N/A   Mostly Cloudy
2:53 PM 87.1 °F 92.8 °F 71.1 °F 59% 29.92 in 10.0 mi SSW 12.7 mph - N/A   Scattered Clouds
3:53 PM 87.1 °F 92.0 °F 70.0 °F 57% 29.91 in 10.0 mi South 10.4 mph - N/A   Scattered Clouds
4:53 PM 87.1 °F 93.6 °F 72.0 °F 61% 29.90 in 10.0 mi South 11.5 mph - N/A   Scattered Clouds
5:53 PM 84.9 °F 90.7 °F 72.0 °F 65% 29.90 in 10.0 mi South 11.5 mph 18.4 mph N/A   Partly Cloudy
6:53 PM 82.0 °F 86.7 °F 72.0 °F 71% 29.91 in 8.0 mi South 9.2 mph 17.3 mph N/A   Overcast
7:53 PM 80.1 °F 83.6 °F 71.1 °F 74% 29.92 in 8.0 mi South 11.5 mph - N/A   Overcast
8:53 PM 77.0 °F - 70.0 °F 79% 29.94 in 9.0 mi South 6.9 mph - N/A   Clear
9:53 PM 75.0 °F - 69.1 °F 82% 29.96 in 9.0 mi SSE 5.8 mph - N/A   Clear
10:53 PM 73.9 °F - 69.1 °F 85% 29.97 in 10.0 mi South 6.9 mph - N/A   Clear
11:53 PM 73.0 °F - 70.0 °F 90% 29.96 in 10.0 mi South 5.8 mph - N/A   Clear